EW8906 Velez Malaga ES current weather conditions

sailwx.info

Wind from 046

Air temperature 12.2° C
Dewpoint 3.7° C

Last reported at 2020-Jan-17 19:02 UTC.
Time now 2020-Jan-17 19:57 UTC

Location: N 36°52' W 004°04'.
View on Google Maps.

See reports from other nearby stations

  
Tides and Currents Weather Stations Pressure Air Temp Water Temp Dewpoint Dewpoint Depression Visibility Wind Speed Wind Dir Waves Ship Positions
date/time (UTC)wind fromknots sea level pressurealtimeterstation pressurevisibilityair tempwater tempwave heightnotes
2020-Jan-17 19:02 046 12.2
2020-Jan-17 18:46 046 12.2
2020-Jan-17 18:32 054 0 gusting 2 12.2
2020-Jan-17 18:18 138 12.8
2020-Jan-17 18:03 138 12.8
2020-Jan-17 17:48 138 13.3
2020-Jan-17 17:32 136 13.3
2020-Jan-17 17:16 142 14.4
2020-Jan-17 17:01 148 15.0
2020-Jan-17 16:46 144 15.6
2020-Jan-17 16:31 154 15.6
2020-Jan-17 16:16 171 16.1
2020-Jan-17 16:01 180 16.7
2020-Jan-17 15:46 167 17.2
2020-Jan-17 15:32 197 17.2
2020-Jan-17 15:16 205 0 gusting 3 17.8
2020-Jan-17 15:01 198 17.8
2020-Jan-17 14:46 174 17.8
2020-Jan-17 14:32 199 0 gusting 4 17.8
2020-Jan-17 14:17 140 18.3
2020-Jan-17 14:01 147 18.9
2020-Jan-17 13:46 130 18.3
2020-Jan-17 13:31 182 17.2
2020-Jan-17 13:16 197 0 gusting 6 17.2
2020-Jan-17 13:01 198 3 gusting 7 17.8
2020-Jan-17 12:45 176 0 gusting 3 18.9
2020-Jan-17 12:31 135 18.9
2020-Jan-17 12:01 275 18.3
2020-Jan-17 11:46 094 0 gusting 3 17.8
2020-Jan-17 11:30 087 17.2
2020-Jan-17 11:15 092 3 gusting 10 16.1
2020-Jan-17 11:01 105 1 gusting 13 15.0
2020-Jan-17 10:45 344 4 gusting 15 14.4
2020-Jan-17 10:30 311 5 gusting 12 13.9
2020-Jan-17 10:15 323 6 gusting 13 13.9
2020-Jan-17 10:01 322 6 gusting 16 13.9
2020-Jan-17 09:45 355 4 gusting 10 13.3
2020-Jan-17 09:30 257 6 gusting 15 13.3
2020-Jan-17 09:16 142 1 gusting 13 13.3
2020-Jan-17 09:02 188 1 gusting 9 13.3
2020-Jan-17 08:46 277 3 gusting 10 12.8
2020-Jan-17 08:33 288 1 gusting 6 11.7
2020-Jan-17 08:17 311 0 gusting 7 11.1
2020-Jan-17 08:00 034 10.6
2020-Jan-17 07:46 196 10.6
2020-Jan-17 07:31 170 10.6
2020-Jan-17 07:16 132 0 gusting 6 10.6
2020-Jan-17 07:01 341 2 gusting 9 10.6
2020-Jan-17 06:46 225 0 gusting 6 10.0
2020-Jan-17 06:31 205 0 gusting 4 11.1
2020-Jan-17 06:18 194 1 gusting 6 11.1
2020-Jan-17 06:00 288 3 gusting 13 11.1
2020-Jan-17 05:46 223 2 gusting 8 11.1
2020-Jan-17 05:30 039 2 gusting 10 10.6
2020-Jan-17 05:16 220 11.1
2020-Jan-17 05:00 229 0 gusting 6 11.1
2020-Jan-17 04:30 217 1 gusting 6 11.1
2020-Jan-17 04:15 277 4 gusting 10 10.6
2020-Jan-17 04:00 217 3 gusting 12 10.6
2020-Jan-17 03:45 088 10.0
2020-Jan-17 03:30 138 10.6
2020-Jan-17 03:15 224 10.0
2020-Jan-17 03:00 267 10.0
2020-Jan-17 02:45 200 10.6
2020-Jan-17 02:30 255 10.6
2020-Jan-17 02:15 109 10.0
2020-Jan-17 02:00 009 10.0
2020-Jan-17 01:45 265 0 gusting 7 10.6
2020-Jan-17 01:30 032 10.0
2020-Jan-17 01:15 015 0 gusting 5 10.6
2020-Jan-17 01:04 012 2 gusting 6 10.6
2020-Jan-17 00:46 018 1 gusting 6 10.6
2020-Jan-17 00:31 355 10.0
2020-Jan-17 00:16 209 10.0
2020-Jan-17 00:03 316 10.0
2020-Jan-16 23:46 286 10.6
2020-Jan-16 23:33 286 10.6
2020-Jan-16 23:16 286 10.6
2020-Jan-16 23:02 286 10.6
2020-Jan-16 22:47 286 10.6
2020-Jan-16 22:32 286 11.1
2020-Jan-16 22:16 289 11.1
2020-Jan-16 22:02 317 11.1
2020-Jan-16 21:46 317 11.1
2020-Jan-16 21:31 317 11.1
2020-Jan-16 21:16 315 11.1
2020-Jan-16 21:02 310 11.1
2020-Jan-16 20:46 308 11.1
2020-Jan-16 20:31 236 10.6
2020-Jan-16 20:16 229 10.6
2020-Jan-16 20:01 228 10.0
2020-Jan-16 19:46 228 10.6
2020-Jan-16 19:31 228 11.1
2020-Jan-16 19:16 228 10.6
2020-Jan-16 19:01 228 10.6
2020-Jan-16 18:46 228 10.6
2020-Jan-16 18:31 228 11.1
2020-Jan-16 18:16 228 11.1
2020-Jan-16 18:00 228 11.7
2020-Jan-16 17:45 228 12.2
2020-Jan-16 17:31 228 12.8
2020-Jan-16 17:16 228 12.8
2020-Jan-16 17:01 228 13.3
2020-Jan-16 16:46 228 13.9
2020-Jan-16 16:31 209 13.9
2020-Jan-16 16:16 196 14.4
2020-Jan-16 16:01 199 15.0
2020-Jan-16 15:46 196 15.0
2020-Jan-16 15:30 212 14.4
2020-Jan-16 15:16 236 2 gusting 9 13.9
2020-Jan-16 15:00 203 1 gusting 4 15.0
2020-Jan-16 14:46 206 1 gusting 4 15.6
2020-Jan-16 14:31 199 0 gusting 6 15.0
2020-Jan-16 14:16 202 3 gusting 6 15.0
2020-Jan-16 14:01 211 2 gusting 6 15.0
2020-Jan-16 13:45 203 0 gusting 5 15.0
2020-Jan-16 13:30 182 3 gusting 6 15.0
2020-Jan-16 13:15 207 1 gusting 6 15.6
2020-Jan-16 13:01 192 0 gusting 4 15.6
2020-Jan-16 12:45 211 1 gusting 6 15.0
2020-Jan-16 12:30 209 2 gusting 5 14.4
2020-Jan-16 12:15 219 2 gusting 6 13.9
2020-Jan-16 12:00 200 1 gusting 6 14.4
2020-Jan-16 11:45 158 14.4
2020-Jan-16 11:30 187 13.9
2020-Jan-16 11:15 222 2 gusting 6 13.3
2020-Jan-16 11:01 202 0 gusting 4 12.8
2020-Jan-16 10:46 196 12.8
2020-Jan-16 10:32 196 12.8
2020-Jan-16 10:16 204 12.2
2020-Jan-16 10:02 202 0 gusting 3 12.2
2020-Jan-16 09:46 194 12.8
2020-Jan-16 09:31 194 11.7
2020-Jan-16 09:15 180 12.2
2020-Jan-16 09:00 176 13.3
2020-Jan-16 08:45 176 12.2
2020-Jan-16 08:31 185 11.7
2020-Jan-16 08:15 194 10.6
2020-Jan-16 08:00 194 10.6
2020-Jan-16 07:45 110 10.0
2020-Jan-16 07:30 105 10.0
2020-Jan-16 07:15 061 1 gusting 7 10.0
2020-Jan-16 07:01 061 0 gusting 6 10.0
2020-Jan-16 06:49 076 2 gusting 6 10.0
2020-Jan-16 06:32 075 0 gusting 4 10.0
2020-Jan-16 06:18 096 0 gusting 6 10.0
2020-Jan-16 06:02 073 2 gusting 6 10.0
2020-Jan-16 05:47 063 1 gusting 6 10.0
2020-Jan-16 05:32 070 1 gusting 6 10.0
2020-Jan-16 05:17 065 1 gusting 5 9.4
2020-Jan-16 05:02 084 9.4
2020-Jan-16 04:47 078 8.9
2020-Jan-16 04:32 091 8.9
2020-Jan-16 04:17 084 8.9
2020-Jan-16 04:01 090 8.9
2020-Jan-16 03:46 091 8.9
2020-Jan-16 03:33 076 8.9
2020-Jan-16 03:16 076 8.9
2020-Jan-16 03:01 076 8.9
2020-Jan-16 02:46 076 8.9
2020-Jan-16 02:31 076 9.4
2020-Jan-16 02:16 076 9.4
2020-Jan-16 02:01 076 9.4
2020-Jan-16 01:46 076 8.9
2020-Jan-16 01:33 070 8.3
2020-Jan-16 01:17 070 8.3
2020-Jan-16 01:00 070 8.3
2020-Jan-16 00:46 069 8.3
2020-Jan-16 00:31 048 7.8
2020-Jan-16 00:16 018 8.3
2020-Jan-16 00:02 018 8.9
2020-Jan-15 23:45 018 8.9
2020-Jan-15 23:30 018 8.9
2020-Jan-15 23:15 018 9.4
2020-Jan-15 23:00 005 10.0
2020-Jan-15 22:45 005 9.4
2020-Jan-15 22:30 005 10.0
2020-Jan-15 22:16 009 10.0
2020-Jan-15 22:01 009 9.4
2020-Jan-15 21:45 015 9.4
2020-Jan-15 21:30 228 9.4
2020-Jan-15 21:15 224 9.4
2020-Jan-15 21:00 224 9.4
2020-Jan-15 20:45 224 9.4
2020-Jan-15 20:30 225 9.4
2020-Jan-15 20:15 225 10.0
2020-Jan-15 20:00 225 10.0
2020-Jan-15 19:45 225 10.6
2020-Jan-15 19:30 225 10.6
2020-Jan-15 19:16 225 11.1
2020-Jan-15 19:00 225 11.1